Home > Time Zones > World Clock > Weather > Latvia > Riga > Past weeks

Flag for Latvia Weather past 2 weeks in Riga, Latvia

Now
41 °F

Clear.


Feels Like: 35 °F
Forecast: 47 / 59 °F
Wind: 9 mph from Southwest

Location: Riga Airport

Current Time: Apr 25, 2015 at 5:06:29 AM

Latest Report: Apr 25, 2015 at 4:20 AM


Visibility: 10 mi

Pressure: 29.80 "Hg

Humidity: 87%

Dew point: 37 °F

Location of RigaLocation

Historic Weather in Riga — Graph

°F

Riga temperature yesterday

Maximum temperature yesterday: 59 °F (at 2:50 PM)
Minimum temperature yesterday: 34 °F (at 5:50 AM)
Average temperature yesterday: 46 °F

Past Weeks' High & Low Weather Summary

 TemperatureHumidityPressure
High66 °F (Apr 11, 4:20 PM)100% (Apr 10, 6:20 AM)30.15 "Hg (Apr 10, 6:20 AM)
Low32 °F (Apr 11, 6:50 AM)33% (Apr 24, 12:20 PM)29.15 "Hg (Apr 16, 3:20 AM)
Average44 °F74%29.83 "Hg
* Reported Apr 10 3:20 AM — Apr 25 3:20 AM, Riga, Weather by CustomWeather, © 2015

Note: Actual official high and low records may vary slightly from our data, if they occured in-between our weather recording intervals... More about our weather records

Advertising

Riga weather history for previous 24 hours

 ConditionsComfort  
Time TempWeatherWind HumidityBarometerVisibility
3:20 AM
Sat, Apr 25
41 °FClear.5 mph70%29.80 "Hg10 mi
2:50 AM41 °FClear.7 mph70%29.80 "Hg10 mi
2:20 AM41 °FClear.6 mph70%29.80 "Hg10 mi
1:50 AM41 °FClear.6 mph66%29.80 "Hg10 mi
1:20 AM41 °FClear.6 mph70%29.80 "Hg10 mi
12:20 AM41 °FClear.5 mph66%29.80 "Hg10 mi
11:50 PM
Fri, Apr 24
41 °FClear.3 mph61%29.80 "Hg10 mi
11:20 PM41 °FClear.2 mph66%29.80 "Hg10 mi
10:50 PM43 °FClear.1 mph57%29.80 "Hg10 mi
10:20 PM43 °FClear.2 mph57%29.80 "Hg10 mi
9:50 PM43 °FSunny.No wind53%29.77 "Hg10 mi
9:20 PM43 °FSunny.1 mph53%29.77 "Hg10 mi
8:50 PM43 °FPassing clouds.5 mph53%29.77 "HgN/A
8:20 PM45 °FSunny.9 mph49%29.77 "Hg10 mi
7:50 PM46 °FPassing clouds.8 mph46%29.74 "HgN/A
7:20 PM48 °FPassing clouds.12 mph43%29.74 "HgN/A
6:50 PM48 °FPassing clouds.13 mph50%29.71 "HgN/A
6:20 PM48 °FSunny.12 mph58%29.71 "Hg10 mi
5:50 PM52 °FPassing clouds.10 mph44%29.68 "HgN/A
5:20 PM54 °FPassing clouds.10 mph41%29.68 "HgN/A
4:50 PM54 °FPassing clouds.8 mph41%29.68 "HgN/A
4:20 PM55 °FPassing clouds.10 mph44%29.65 "HgN/A
3:50 PM54 °FPassing clouds.9 mph44%29.65 "HgN/A
3:20 PM55 °FSunny.9 mph41%29.65 "Hg10 mi
2:50 PM59 °FPassing clouds.12 mph39%29.62 "HgN/A
2:20 PM55 °FPassing clouds.9 mph41%29.62 "HgN/A
1:50 PM55 °FPassing clouds.8 mph41%29.62 "HgN/A
1:20 PM55 °FPassing clouds.10 mph41%29.62 "HgN/A
12:50 PM57 °FPassing clouds.10 mph36%29.62 "HgN/A
12:20 PM57 °FSunny.12 mph33%29.62 "Hg10 mi
11:50 AM55 °FPassing clouds.10 mph44%29.62 "HgN/A
11:20 AM55 °FPassing clouds.12 mph44%29.59 "HgN/A
10:50 AM54 °FSunny.9 mph47%29.59 "Hg10 mi
10:20 AM52 °FPassing clouds.9 mph54%29.59 "HgN/A
9:50 AM50 °FSunny.8 mph62%29.59 "Hg10 mi
9:20 AM48 °FPassing clouds.7 mph71%29.59 "HgN/A
8:50 AM46 °FPassing clouds.7 mph76%29.59 "HgN/A
8:20 AM45 °FPassing clouds.6 mph81%29.59 "HgN/A
7:50 AM43 °FPassing clouds.6 mph87%29.59 "HgN/A
7:20 AM41 °FSunny.7 mph87%29.59 "Hg10 mi
6:50 AM36 °FClear.7 mph93%29.59 "Hg10 mi
5:50 AM34 °FClear.6 mph87%29.59 "Hg10 mi
5:20 AM36 °FClear.6 mph75%29.59 "Hg10 mi
Weather by CustomWeather, © 2015

See weather overviewHow to use our weather pages